owner,sensor,date,latitude,longitude,vertical_datum,direction_of_sea_water_velocity,sea_water_speed,upward_sea_water_velocity,qcFlag 
TABS,ioos:station:wmo:42048:1,2008-12-01T00:00:00Z,27.9396,-96.8429,2.0,89.76915659,12.41010072,-99999.0,'11111222,11111222,99999999' 
TABS,ioos:station:wmo:42048:1,2008-12-01T00:30:00Z,27.9396,-96.8429,2.0,80.12633502,15.5706294,-99999.0,'11111222,11111222,99999999' 
TABS,ioos:station:wmo:42048:1,2008-12-01T01:00:00Z,27.9396,-96.8429,2.0,61.40631313,16.42303261,-99999.0,'11111222,11111222,99999999' 
TABS,ioos:station:wmo:42048:1,2008-12-01T01:30:00Z,27.9396,-96.8429,2.0,74.14696854,17.90085194,-99999.0,'11111222,11111222,99999999' 
TABS,ioos:station:wmo:42048:1,2008-12-01T02:00:00Z,27.9396,-96.8429,2.0,58.22587658,18.91475614,-99999.0,'11111222,11111222,99999999' 
TABS,ioos:station:wmo:42048:1,2008-12-01T02:30:00Z,27.9396,-96.8429,2.0,60.11042235,20.12718063,-99999.0,'11111222,11111222,99999999' 
TABS,ioos:station:wmo:42048:1,2008-12-01T03:00:00Z,27.9396,-96.8429,2.0,56.21524906,26.83088519,-99999.0,'11111222,11111222,99999999' 
TABS,ioos:station:wmo:42048:1,2008-12-01T03:30:00Z,27.9396,-96.8429,2.0,47.03579255,31.25263029,-99999.0,'11111222,11111222,99999999' 
TABS,ioos:station:wmo:42048:1,2008-12-01T04:00:00Z,27.9396,-96.8429,2.0,48.55143626,28.31035146,-99999.0,'11111222,11111222,99999999' 
TABS,ioos:station:wmo:42048:1,2008-12-01T04:30:00Z,27.9396,-96.8429,2.0,53.26086471,28.93807526,-99999.0,'11111222,11111222,99999999' 
TABS,ioos:station:wmo:42048:1,2008-12-01T05:00:00Z,27.9396,-96.8429,2.0,48.07223089,29.42257127,-99999.0,'11111222,11111222,99999999' 
TABS,ioos:station:wmo:42048:1,2008-12-01T05:30:00Z,27.9396,-96.8429,2.0,62.86774586,36.13662962,-99999.0,'11111222,11111222,99999999' 
TABS,ioos:station:wmo:42048:1,2008-12-01T06:00:00Z,27.9396,-96.8429,2.0,45.09469143,34.26644131,-99999.0,'11111222,11111222,99999999' 
TABS,ioos:station:wmo:42048:1,2008-12-01T06:30:00Z,27.9396,-96.8429,2.0,53.38333411,36.66635788,-99999.0,'11111222,11111222,99999999' 
TABS,ioos:station:wmo:42048:1,2008-12-01T07:00:00Z,27.9396,-96.8429,2.0,56.77765609,30.24326206,-99999.0,'11111222,11111222,99999999' 
TABS,ioos:station:wmo:42048:1,2008-12-01T07:30:00Z,27.9396,-96.8429,2.0,60.3047734,34.39732548,-99999.0,'11111222,11111222,99999999' 
TABS,ioos:station:wmo:42048:1,2008-12-01T08:00:00Z,27.9396,-96.8429,2.0,62.47715561,33.97509235,-99999.0,'11111222,11111222,99999999' 
TABS,ioos:station:wmo:42048:1,2008-12-01T08:30:00Z,27.9396,-96.8429,2.0,60.52541069,35.24114073,-99999.0,'11111222,11111222,99999999' 
TABS,ioos:station:wmo:42048:1,2008-12-01T09:00:00Z,27.9396,-96.8429,2.0,59.10392797,34.87940653,-99999.0,'11111222,11111222,99999999' 
TABS,ioos:station:wmo:42048:1,2008-12-01T09:30:00Z,27.9396,-96.8429,2.0,59.39819178,30.68342386,-99999.0,'11111222,11111222,99999999' 
TABS,ioos:station:wmo:42048:1,2008-12-01T10:00:00Z,27.9396,-96.8429,2.0,61.86258419,34.2247279,-99999.0,'11111222,11111222,99999999' 
TABS,ioos:station:wmo:42048:1,2008-12-01T10:30:00Z,27.9396,-96.8429,2.0,58.7301121,33.69480821,-99999.0,'11111222,11111222,99999999' 
TABS,ioos:station:wmo:42048:1,2008-12-01T11:00:00Z,27.9396,-96.8429,2.0,62.32036847,36.5532119,-99999.0,'11111222,11111222,99999999' 
TABS,ioos:station:wmo:42048:1,2008-12-01T11:30:00Z,27.9396,-96.8429,2.0,64.57544594,37.52418154,-99999.0,'11111222,11111222,99999999' 
TABS,ioos:station:wmo:42048:1,2008-12-01T12:00:00Z,27.9396,-96.8429,2.0,69.5617322,36.45488307,-99999.0,'11111222,11111222,99999999' 
TABS,ioos:station:wmo:42048:1,2008-12-01T12:30:00Z,27.9396,-96.8429,2.0,69.00996654,38.16236104,-99999.0,'11111222,11111222,99999999' 
TABS,ioos:station:wmo:42048:1,2008-12-01T13:00:00Z,27.9396,-96.8429,2.0,58.65401194,36.75467997,-99999.0,'11111222,11111222,99999999' 
TABS,ioos:station:wmo:42048:1,2008-12-01T13:30:00Z,27.9396,-96.8429,2.0,55.39029939,39.05037772,-99999.0,'11111222,11111222,99999999' 
TABS,ioos:station:wmo:42048:1,2008-12-01T14:00:00Z,27.9396,-96.8429,2.0,59.15984027,39.7740443,-99999.0,'11111222,11111222,99999999' 
TABS,ioos:station:wmo:42048:1,2008-12-01T14:30:00Z,27.9396,-96.8429,2.0,62.66190191,37.45307598,-99999.0,'11111222,11111222,99999999' 
TABS,ioos:station:wmo:42048:1,2008-12-01T15:00:00Z,27.9396,-96.8429,2.0,64.93768695,41.0996472,-99999.0,'11111222,11111222,99999999' 
TABS,ioos:station:wmo:42048:1,2008-12-01T15:30:00Z,27.9396,-96.8429,2.0,66.20736849,44.19618196,-99999.0,'11111222,11111222,99999999' 
TABS,ioos:station:wmo:42048:1,2008-12-01T16:00:00Z,27.9396,-96.8429,2.0,65.92040709,40.21997638,-99999.0,'11111222,11111222,99999999' 
TABS,ioos:station:wmo:42048:1,2008-12-01T16:30:00Z,27.9396,-96.8429,2.0,62.75339877,40.97660918,-99999.0,'11111222,11111222,99999999' 
TABS,ioos:station:wmo:42048:1,2008-12-01T17:00:00Z,27.9396,-96.8429,2.0,63.29371494,36.26913288,-99999.0,'11111222,11111222,99999999' 
TABS,ioos:station:wmo:42048:1,2008-12-01T17:30:00Z,27.9396,-96.8429,2.0,69.53128346,40.72100318,-99999.0,'11111222,11111222,99999999' 
TABS,ioos:station:wmo:42048:1,2008-12-01T18:00:00Z,27.9396,-96.8429,2.0,73.41405483,43.1242971,-99999.0,'11111222,11111222,99999999' 
TABS,ioos:station:wmo:42048:1,2008-12-01T18:30:00Z,27.9396,-96.8429,2.0,62.34166504,38.90572194,-99999.0,'11111222,11111222,99999999' 
TABS,ioos:station:wmo:42048:1,2008-12-01T19:00:00Z,27.9396,-96.8429,2.0,65.65676813,39.5678986,-99999.0,'11111222,11111222,99999999' 
TABS,ioos:station:wmo:42048:1,2008-12-01T19:30:00Z,27.9396,-96.8429,2.0,58.46586758,37.89620561,-99999.0,'11111222,11111222,99999999' 
TABS,ioos:station:wmo:42048:1,2008-12-01T20:00:00Z,27.9396,-96.8429,2.0,62.7203261,34.77803473,-99999.0,'11111222,11111222,99999999' 
TABS,ioos:station:wmo:42048:1,2008-12-01T20:30:00Z,27.9396,-96.8429,2.0,61.64894352,35.44100732,-99999.0,'11111222,11111222,99999999' 
TABS,ioos:station:wmo:42048:1,2008-12-01T21:00:00Z,27.9396,-96.8429,2.0,64.8629935,34.2761506,-99999.0,'11111222,11111222,99999999' 
TABS,ioos:station:wmo:42048:1,2008-12-01T21:30:00Z,27.9396,-96.8429,2.0,59.88438027,35.45607141,-99999.0,'11111222,11111222,99999999' 
TABS,ioos:station:wmo:42048:1,2008-12-01T22:00:00Z,27.9396,-96.8429,2.0,59.32407905,32.43936652,-99999.0,'11111222,11111222,99999999' 
TABS,ioos:station:wmo:42048:1,2008-12-01T22:30:00Z,27.9396,-96.8429,2.0,53.27704026,34.33411277,-99999.0,'11111222,11111222,99999999' 
TABS,ioos:station:wmo:42048:1,2008-12-01T23:00:00Z,27.9396,-96.8429,2.0,51.48316376,34.44423029,-99999.0,'11111222,11111222,99999999' 
TABS,ioos:station:wmo:42048:1,2008-12-01T23:30:00Z,27.9396,-96.8429,2.0,53.35918951,33.02626379,-99999.0,'11111222,11111222,99999999' 
TABS,ioos:station:wmo:42048:1,2008-12-02T00:00:00Z,27.9396,-96.8429,2.0,48.12929213,27.07305856,-99999.0,'11111222,11111222,99999999' 
TABS,ioos:station:wmo:42048:1,2008-12-02T00:30:00Z,27.9396,-96.8429,2.0,44.4817302,29.69970034,-99999.0,'11111222,11111222,99999999' 
TABS,ioos:station:wmo:42048:1,2008-12-02T01:00:00Z,27.9396,-96.8429,2.0,45.02810896,28.93481294,-99999.0,'11111222,11111222,99999999' 
TABS,ioos:station:wmo:42048:1,2008-12-02T01:30:00Z,27.9396,-96.8429,2.0,48.78898625,27.82182237,-99999.0,'11111222,11111222,99999999' 
TABS,ioos:station:wmo:42048:1,2008-12-02T02:00:00Z,27.9396,-96.8429,2.0,44.58872985,28.56077905,-99999.0,'11111222,11111222,99999999' 
TABS,ioos:station:wmo:42048:1,2008-12-02T02:30:00Z,27.9396,-96.8429,2.0,45.61849077,26.20690367,-99999.0,'11111222,11111222,99999999' 
TABS,ioos:station:wmo:42048:1,2008-12-02T03:00:00Z,27.9396,-96.8429,2.0,50.01994713,23.11204448,-99999.0,'11111222,11111222,99999999' 
TABS,ioos:station:wmo:42048:1,2008-12-02T03:30:00Z,27.9396,-96.8429,2.0,42.9588469,24.41774969,-99999.0,'11111222,11111222,99999999' 
TABS,ioos:station:wmo:42048:1,2008-12-02T04:00:00Z,27.9396,-96.8429,2.0,45.06843632,23.71637831,-99999.0,'11111222,11111222,99999999' 
TABS,ioos:station:wmo:42048:1,2008-12-02T04:30:00Z,27.9396,-96.8429,2.0,41.40739187,13.87949927,-99999.0,'11111222,11111222,99999999' 
TABS,ioos:station:wmo:42048:1,2008-12-02T05:00:00Z,27.9396,-96.8429,2.0,40.9626777,17.37430574,-99999.0,'11111222,11111222,99999999' 
TABS,ioos:station:wmo:42048:1,2008-12-02T05:30:00Z,27.9396,-96.8429,2.0,53.67460275,20.20691218,-99999.0,'11111222,11111222,99999999' 
TABS,ioos:station:wmo:42048:1,2008-12-02T06:00:00Z,27.9396,-96.8429,2.0,36.56427933,21.7383095,-99999.0,'11111222,11111222,99999999' 
TABS,ioos:station:wmo:42048:1,2008-12-02T06:30:00Z,27.9396,-96.8429,2.0,45.82016652,25.19679543,-99999.0,'11111222,11111222,99999999' 
TABS,ioos:station:wmo:42048:1,2008-12-02T07:00:00Z,27.9396,-96.8429,2.0,38.89856839,20.62292414,-99999.0,'11111222,11111222,99999999' 
TABS,ioos:station:wmo:42048:1,2008-12-02T07:30:00Z,27.9396,-96.8429,2.0,41.1234977,21.54534288,-99999.0,'11111222,11111222,99999999' 
TABS,ioos:station:wmo:42048:1,2008-12-02T08:00:00Z,27.9396,-96.8429,2.0,37.96952344,25.01460573,-99999.0,'11111222,11111222,99999999' 
TABS,ioos:station:wmo:42048:1,2008-12-02T08:30:00Z,27.9396,-96.8429,2.0,41.2119757,24.93757206,-99999.0,'11111222,11111222,99999999' 
TABS,ioos:station:wmo:42048:1,2008-12-02T09:00:00Z,27.9396,-96.8429,2.0,49.24508265,22.64002871,-99999.0,'11111222,11111222,99999999' 
TABS,ioos:station:wmo:42048:1,2008-12-02T09:30:00Z,27.9396,-96.8429,2.0,43.60901489,22.71896565,-99999.0,'11111222,11111222,99999999' 
TABS,ioos:station:wmo:42048:1,2008-12-02T10:00:00Z,27.9396,-96.8429,2.0,36.43441938,22.36064623,-99999.0,'11111222,11111222,99999999' 
TABS,ioos:station:wmo:42048:1,2008-12-02T10:30:00Z,27.9396,-96.8429,2.0,42.56816097,23.82974822,-99999.0,'11111222,11111222,99999999' 
TABS,ioos:station:wmo:42048:1,2008-12-02T11:00:00Z,27.9396,-96.8429,2.0,41.51468238,22.79686382,-99999.0,'11111222,11111222,99999999' 
TABS,ioos:station:wmo:42048:1,2008-12-02T11:30:00Z,27.9396,-96.8429,2.0,52.36116569,28.31255022,-99999.0,'11111222,11111222,99999999' 
TABS,ioos:station:wmo:42048:1,2008-12-02T12:00:00Z,27.9396,-96.8429,2.0,45.11600995,20.97283004,-99999.0,'11111222,11111222,99999999' 
TABS,ioos:station:wmo:42048:1,2008-12-02T12:30:00Z,27.9396,-96.8429,2.0,44.4404586,23.16592325,-99999.0,'11111222,11111222,99999999' 
TABS,ioos:station:wmo:42048:1,2008-12-02T13:00:00Z,27.9396,-96.8429,2.0,48.38023893,27.82355836,-99999.0,'11111222,11111222,99999999' 
TABS,ioos:station:wmo:42048:1,2008-12-02T13:30:00Z,27.9396,-96.8429,2.0,44.23515357,30.71945638,-99999.0,'11111222,11111222,99999999' 
TABS,ioos:station:wmo:42048:1,2008-12-02T14:00:00Z,27.9396,-96.8429,2.0,45.17639897,25.27918709,-99999.0,'11111222,11111222,99999999' 
TABS,ioos:station:wmo:42048:1,2008-12-02T14:30:00Z,27.9396,-96.8429,2.0,35.76527046,23.13229993,-99999.0,'11111222,11111222,99999999' 
TABS,ioos:station:wmo:42048:1,2008-12-02T15:00:00Z,27.9396,-96.8429,2.0,47.09939156,33.00868522,-99999.0,'11111222,11111222,99999999' 
TABS,ioos:station:wmo:42048:1,2008-12-02T15:30:00Z,27.9396,-96.8429,2.0,42.26407424,31.70037855,-99999.0,'11111222,11111222,99999999' 
TABS,ioos:station:wmo:42048:1,2008-12-02T16:00:00Z,27.9396,-96.8429,2.0,40.60141016,26.73667893,-99999.0,'11111222,11111222,99999999' 
TABS,ioos:station:wmo:42048:1,2008-12-02T16:30:00Z,27.9396,-96.8429,2.0,38.46427717,26.52626811,-99999.0,'11111222,11111222,99999999' 
TABS,ioos:station:wmo:42048:1,2008-12-02T17:00:00Z,27.9396,-96.8429,2.0,43.86154921,28.11304501,-99999.0,'11111222,11111222,99999999' 
TABS,ioos:station:wmo:42048:1,2008-12-02T17:30:00Z,27.9396,-96.8429,2.0,37.89814095,30.54091682,-99999.0,'11111222,11111222,99999999' 
TABS,ioos:station:wmo:42048:1,2008-12-02T18:00:00Z,27.9396,-96.8429,2.0,45.92517724,25.40258648,-99999.0,'11111222,11111222,99999999' 
TABS,ioos:station:wmo:42048:1,2008-12-02T18:30:00Z,27.9396,-96.8429,2.0,54.58612518,30.14773292,-99999.0,'11111222,11111222,99999999' 
TABS,ioos:station:wmo:42048:1,2008-12-02T19:00:00Z,27.9396,-96.8429,2.0,36.40280711,26.48888069,-99999.0,'11111222,11111222,99999999' 
TABS,ioos:station:wmo:42048:1,2008-12-02T19:30:00Z,27.9396,-96.8429,2.0,46.18366766,26.35949355,-99999.0,'11111222,11111222,99999999' 
TABS,ioos:station:wmo:42048:1,2008-12-02T20:00:00Z,27.9396,-96.8429,2.0,47.40242468,29.85907735,-99999.0,'11111222,11111222,99999999' 
TABS,ioos:station:wmo:42048:1,2008-12-02T20:30:00Z,27.9396,-96.8429,2.0,39.97852963,26.73934367,-99999.0,'11111222,11111222,99999999' 
TABS,ioos:station:wmo:42048:1,2008-12-02T21:00:00Z,27.9396,-96.8429,2.0,30.80720015,26.96482338,-99999.0,'11111222,11111222,99999999' 
TABS,ioos:station:wmo:42048:1,2008-12-02T21:30:00Z,27.9396,-96.8429,2.0,38.74547851,27.19456747,-99999.0,'11111222,11111222,99999999' 
TABS,ioos:station:wmo:42048:1,2008-12-02T22:00:00Z,27.9396,-96.8429,2.0,45.6123526,25.14615279,-99999.0,'11111222,11111222,99999999' 
TABS,ioos:station:wmo:42048:1,2008-12-02T22:30:00Z,27.9396,-96.8429,2.0,46.65578113,24.22852245,-99999.0,'11111222,11111222,99999999' 
TABS,ioos:station:wmo:42048:1,2008-12-02T23:00:00Z,27.9396,-96.8429,2.0,41.55121907,32.32382558,-99999.0,'11111222,11111222,99999999' 
TABS,ioos:station:wmo:42048:1,2008-12-02T23:30:00Z,27.9396,-96.8429,2.0,29.46626906,31.10331815,-99999.0,'11111222,11111222,99999999' 
TABS,ioos:station:wmo:42048:1,2008-12-03T00:00:00Z,27.9396,-96.8429,2.0,38.66984734,27.0633516,-99999.0,'11111222,11111222,99999999' 
TABS,ioos:station:wmo:42048:1,2008-12-03T00:30:00Z,27.9396,-96.8429,2.0,46.94547848,26.45396946,-99999.0,'11111222,11111222,99999999' 
TABS,ioos:station:wmo:42048:1,2008-12-03T01:00:00Z,27.9396,-96.8429,2.0,36.74341834,30.77407513,-99999.0,'11111222,11111222,99999999' 
TABS,ioos:station:wmo:42048:1,2008-12-03T01:30:00Z,27.9396,-96.8429,2.0,47.70570842,26.06472712,-99999.0,'11111222,11111222,99999999' 
TABS,ioos:station:wmo:42048:1,2008-12-03T02:00:00Z,27.9396,-96.8429,2.0,43.12198992,27.40096531,-99999.0,'11111222,11111222,99999999' 
TABS,ioos:station:wmo:42048:1,2008-12-03T02:30:00Z,27.9396,-96.8429,2.0,65.71859668,27.72242594,-99999.0,'11111222,11111222,99999999' 
TABS,ioos:station:wmo:42048:1,2008-12-03T03:00:00Z,27.9396,-96.8429,2.0,50.55748074,27.89211358,-99999.0,'11111222,11111222,99999999' 
TABS,ioos:station:wmo:42048:1,2008-12-03T03:30:00Z,27.9396,-96.8429,2.0,45.5170666,27.42978855,-99999.0,'11111222,11111222,99999999' 
TABS,ioos:station:wmo:42048:1,2008-12-03T04:00:00Z,27.9396,-96.8429,2.0,51.74759705,31.41514603,-99999.0,'11111222,11111222,99999999' 
TABS,ioos:station:wmo:42048:1,2008-12-03T04:30:00Z,27.9396,-96.8429,2.0,50.62810505,29.77838982,-99999.0,'11111222,11111222,99999999' 
TABS,ioos:station:wmo:42048:1,2008-12-03T05:00:00Z,27.9396,-96.8429,2.0,58.36416981,33.0397609,-99999.0,'11111222,11111222,99999999' 
TABS,ioos:station:wmo:42048:1,2008-12-03T05:30:00Z,27.9396,-96.8429,2.0,60.49372604,29.19678921,-99999.0,'11111222,11111222,99999999' 
TABS,ioos:station:wmo:42048:1,2008-12-03T06:00:00Z,27.9396,-96.8429,2.0,68.73083927,23.79045607,-99999.0,'11111222,11111222,99999999' 
TABS,ioos:station:wmo:42048:1,2008-12-03T06:30:00Z,27.9396,-96.8429,2.0,60.89872839,27.38735657,-99999.0,'11111222,11111222,99999999' 
TABS,ioos:station:wmo:42048:1,2008-12-03T07:00:00Z,27.9396,-96.8429,2.0,53.65670913,31.99335087,-99999.0,'11111222,11111222,99999999' 
TABS,ioos:station:wmo:42048:1,2008-12-03T07:30:00Z,27.9396,-96.8429,2.0,52.88364123,29.7462754,-99999.0,'11111222,11111222,99999999' 
TABS,ioos:station:wmo:42048:1,2008-12-03T08:00:00Z,27.9396,-96.8429,2.0,57.31836697,31.52017291,-99999.0,'11111222,11111222,99999999' 
TABS,ioos:station:wmo:42048:1,2008-12-03T08:30:00Z,27.9396,-96.8429,2.0,55.44751494,36.85013568,-99999.0,'11111222,11111222,99999999' 
TABS,ioos:station:wmo:42048:1,2008-12-03T09:00:00Z,27.9396,-96.8429,2.0,62.80348623,36.51720827,-99999.0,'11111222,11111222,99999999' 
TABS,ioos:station:wmo:42048:1,2008-12-03T09:30:00Z,27.9396,-96.8429,2.0,59.6124085,33.94300075,-99999.0,'11111222,11111222,99999999' 
TABS,ioos:station:wmo:42048:1,2008-12-03T10:00:00Z,27.9396,-96.8429,2.0,47.98662677,32.43661665,-99999.0,'11111222,11111222,99999999' 
TABS,ioos:station:wmo:42048:1,2008-12-03T10:30:00Z,27.9396,-96.8429,2.0,54.31940483,33.53522327,-99999.0,'11111222,11111222,99999999' 
TABS,ioos:station:wmo:42048:1,2008-12-03T11:00:00Z,27.9396,-96.8429,2.0,58.50397285,21.22729611,-99999.0,'11111222,11111222,99999999' 
TABS,ioos:station:wmo:42048:1,2008-12-03T11:30:00Z,27.9396,-96.8429,2.0,61.08119158,33.21127068,-99999.0,'11111222,11111222,99999999' 
TABS,ioos:station:wmo:42048:1,2008-12-03T12:00:00Z,27.9396,-96.8429,2.0,59.12472527,31.12017031,-99999.0,'11111222,11111222,99999999' 
TABS,ioos:station:wmo:42048:1,2008-12-03T12:30:00Z,27.9396,-96.8429,2.0,66.05241819,27.42043946,-99999.0,'11111222,11111222,99999999' 
TABS,ioos:station:wmo:42048:1,2008-12-03T13:00:00Z,27.9396,-96.8429,2.0,65.83379346,36.54253959,-99999.0,'11111222,11111222,99999999' 
TABS,ioos:station:wmo:42048:1,2008-12-03T13:30:00Z,27.9396,-96.8429,2.0,56.39362541,39.91072162,-99999.0,'11111222,11111222,99999999' 
TABS,ioos:station:wmo:42048:1,2008-12-03T14:00:00Z,27.9396,-96.8429,2.0,62.64971224,36.87175206,-99999.0,'11111222,11111222,99999999' 
TABS,ioos:station:wmo:42048:1,2008-12-03T14:30:00Z,27.9396,-96.8429,2.0,49.09952654,33.43269358,-99999.0,'11111222,11111222,99999999' 
TABS,ioos:station:wmo:42048:1,2008-12-03T15:00:00Z,27.9396,-96.8429,2.0,52.6757986,27.74087237,-99999.0,'11111222,11111222,99999999' 
TABS,ioos:station:wmo:42048:1,2008-12-03T15:30:00Z,27.9396,-96.8429,2.0,53.42852202,30.34441135,-99999.0,'11111222,11111222,99999999' 
TABS,ioos:station:wmo:42048:1,2008-12-03T16:00:00Z,27.9396,-96.8429,2.0,64.2062519,34.8858209,-99999.0,'11111222,11111222,99999999' 
TABS,ioos:station:wmo:42048:1,2008-12-03T16:30:00Z,27.9396,-96.8429,2.0,59.43012037,38.67555947,-99999.0,'11111222,11111222,99999999' 
TABS,ioos:station:wmo:42048:1,2008-12-03T17:00:00Z,27.9396,-96.8429,2.0,59.26108458,38.03353389,-99999.0,'11111222,11111222,99999999' 
TABS,ioos:station:wmo:42048:1,2008-12-03T17:30:00Z,27.9396,-96.8429,2.0,63.65203887,35.41957086,-99999.0,'11111222,11111222,99999999' 
TABS,ioos:station:wmo:42048:1,2008-12-03T18:00:00Z,27.9396,-96.8429,2.0,69.87671481,34.55972511,-99999.0,'11111222,11111222,99999999' 
TABS,ioos:station:wmo:42048:1,2008-12-03T18:30:00Z,27.9396,-96.8429,2.0,58.85307845,30.56634914,-99999.0,'11111222,11111222,99999999' 
TABS,ioos:station:wmo:42048:1,2008-12-03T19:00:00Z,27.9396,-96.8429,2.0,62.46988388,36.10867624,-99999.0,'11111222,11111222,99999999' 
TABS,ioos:station:wmo:42048:1,2008-12-03T19:30:00Z,27.9396,-96.8429,2.0,58.85387395,33.93116709,-99999.0,'11111222,11111222,99999999' 
TABS,ioos:station:wmo:42048:1,2008-12-03T20:00:00Z,27.9396,-96.8429,2.0,55.82430672,33.69924777,-99999.0,'11111222,11111222,99999999' 
TABS,ioos:station:wmo:42048:1,2008-12-03T20:30:00Z,27.9396,-96.8429,2.0,62.76594654,29.10664529,-99999.0,'11111222,11111222,99999999' 
TABS,ioos:station:wmo:42048:1,2008-12-03T21:00:00Z,27.9396,-96.8429,2.0,50.58195322,32.56820535,-99999.0,'11111222,11111222,99999999' 
TABS,ioos:station:wmo:42048:1,2008-12-03T21:30:00Z,27.9396,-96.8429,2.0,65.64819105,28.83548162,-99999.0,'11111222,11111222,99999999' 
TABS,ioos:station:wmo:42048:1,2008-12-03T22:00:00Z,27.9396,-96.8429,2.0,57.46078081,37.42485003,-99999.0,'11111222,11111222,99999999' 
TABS,ioos:station:wmo:42048:1,2008-12-03T22:30:00Z,27.9396,-96.8429,2.0,62.38946951,32.10633738,-99999.0,'11111222,11111222,99999999' 
TABS,ioos:station:wmo:42048:1,2008-12-03T23:00:00Z,27.9396,-96.8429,2.0,59.14605538,34.0253817,-99999.0,'11111222,11111222,99999999' 
TABS,ioos:station:wmo:42048:1,2008-12-03T23:30:00Z,27.9396,-96.8429,2.0,61.00664636,30.92575949,-99999.0,'11111222,11111222,99999999' 
TABS,ioos:station:wmo:42048:1,2008-12-04T00:00:00Z,27.9396,-96.8429,2.0,60.22837701,34.45809339,-99999.0,'11111222,11111222,99999999' 
TABS,ioos:station:wmo:42048:1,2008-12-04T00:30:00Z,27.9396,-96.8429,2.0,56.57267546,36.90459186,-99999.0,'11111222,11111222,99999999' 
TABS,ioos:station:wmo:42048:1,2008-12-04T01:00:00Z,27.9396,-96.8429,2.0,54.3584633,33.96180354,-99999.0,'11111222,11111222,99999999' 
TABS,ioos:station:wmo:42048:1,2008-12-04T01:30:00Z,27.9396,-96.8429,2.0,55.82548247,31.8131938,-99999.0,'11111222,11111222,99999999' 
TABS,ioos:station:wmo:42048:1,2008-12-04T02:00:00Z,27.9396,-96.8429,2.0,58.94564932,34.68048731,-99999.0,'11111222,11111222,99999999' 
TABS,ioos:station:wmo:42048:1,2008-12-04T02:30:00Z,27.9396,-96.8429,2.0,54.19022403,31.56740249,-99999.0,'11111222,11111222,99999999' 
TABS,ioos:station:wmo:42048:1,2008-12-04T03:00:00Z,27.9396,-96.8429,2.0,53.26020644,37.89809758,-99999.0,'11111222,11111222,99999999' 
TABS,ioos:station:wmo:42048:1,2008-12-04T03:30:00Z,27.9396,-96.8429,2.0,58.11339108,36.83924538,-99999.0,'11111222,11111222,99999999' 
TABS,ioos:station:wmo:42048:1,2008-12-04T04:00:00Z,27.9396,-96.8429,2.0,62.19962165,36.29982094,-99999.0,'11111222,11111222,99999999' 
TABS,ioos:station:wmo:42048:1,2008-12-04T04:30:00Z,27.9396,-96.8429,2.0,63.55844287,33.21463081,-99999.0,'11111222,11111222,99999999' 
TABS,ioos:station:wmo:42048:1,2008-12-04T05:00:00Z,27.9396,-96.8429,2.0,62.61967901,30.48516524,-99999.0,'11111222,11111222,99999999' 
TABS,ioos:station:wmo:42048:1,2008-12-04T05:30:00Z,27.9396,-96.8429,2.0,58.57765042,30.42139379,-99999.0,'11111222,11111222,99999999' 
TABS,ioos:station:wmo:42048:1,2008-12-04T06:00:00Z,27.9396,-96.8429,2.0,68.90888171,26.06620034,-99999.0,'11111222,11111222,99999999' 
TABS,ioos:station:wmo:42048:1,2008-12-04T06:30:00Z,27.9396,-96.8429,2.0,75.54855507,18.07180401,-99999.0,'11111222,11111222,99999999' 
TABS,ioos:station:wmo:42048:1,2008-12-04T07:00:00Z,27.9396,-96.8429,2.0,95.42364906,8.146471629,-99999.0,'11133222,11111222,99999999' 
TABS,ioos:station:wmo:42048:1,2008-12-04T07:30:00Z,27.9396,-96.8429,2.0,86.14024659,10.84459773,-99999.0,'11111222,11111222,99999999' 
TABS,ioos:station:wmo:42048:1,2008-12-04T08:00:00Z,27.9396,-96.8429,2.0,121.3168534,10.85092162,-99999.0,'11111222,11111222,99999999' 
TABS,ioos:station:wmo:42048:1,2008-12-04T08:30:00Z,27.9396,-96.8429,2.0,103.3654974,11.80986875,-99999.0,'11111222,11111222,99999999' 
TABS,ioos:station:wmo:42048:1,2008-12-04T09:00:00Z,27.9396,-96.8429,2.0,130.3877131,8.441907367,-99999.0,'11133222,11111222,99999999' 
TABS,ioos:station:wmo:42048:1,2008-12-04T09:30:00Z,27.9396,-96.8429,2.0,72.2996136,6.906981975,-99999.0,'11133222,11111222,99999999' 
TABS,ioos:station:wmo:42048:1,2008-12-04T10:00:00Z,27.9396,-96.8429,2.0,80.97005905,6.753702688,-99999.0,'11133222,11111222,99999999' 
TABS,ioos:station:wmo:42048:1,2008-12-04T10:30:00Z,27.9396,-96.8429,2.0,242.5988943,11.03840568,-99999.0,'11111222,11111222,99999999' 
TABS,ioos:station:wmo:42048:1,2008-12-04T11:00:00Z,27.9396,-96.8429,2.0,175.0715931,8.963135612,-99999.0,'11133222,11111222,99999999' 
TABS,ioos:station:wmo:42048:1,2008-12-04T11:30:00Z,27.9396,-96.8429,2.0,340.8466969,2.77353565,-99999.0,'11133222,11111222,99999999' 
TABS,ioos:station:wmo:42048:1,2008-12-04T12:00:00Z,27.9396,-96.8429,2.0,237.1961441,8.066306466,-99999.0,'11133222,11111222,99999999' 
TABS,ioos:station:wmo:42048:1,2008-12-04T12:30:00Z,27.9396,-96.8429,2.0,144.2861965,4.162847583,-99999.0,'11133222,11111222,99999999' 
TABS,ioos:station:wmo:42048:1,2008-12-04T13:00:00Z,27.9396,-96.8429,2.0,247.1382926,6.023130415,-99999.0,'11133222,11111222,99999999' 
TABS,ioos:station:wmo:42048:1,2008-12-04T13:30:00Z,27.9396,-96.8429,2.0,291.0043726,6.137825348,-99999.0,'11133222,11111222,99999999' 
TABS,ioos:station:wmo:42048:1,2008-12-04T14:00:00Z,27.9396,-96.8429,2.0,236.8457472,12.74479502,-99999.0,'11111222,11111222,99999999' 
TABS,ioos:station:wmo:42048:1,2008-12-04T14:30:00Z,27.9396,-96.8429,2.0,245.9991038,15.29213196,-99999.0,'11111222,11111222,99999999' 
TABS,ioos:station:wmo:42048:1,2008-12-04T15:00:00Z,27.9396,-96.8429,2.0,235.45032,15.90504323,-99999.0,'11111222,11111222,99999999' 
TABS,ioos:station:wmo:42048:1,2008-12-04T15:30:00Z,27.9396,-96.8429,2.0,243.7136251,16.52921051,-99999.0,'11111222,11111222,99999999' 
TABS,ioos:station:wmo:42048:1,2008-12-04T16:00:00Z,27.9396,-96.8429,2.0,227.7577801,19.39719567,-99999.0,'11111222,11111222,99999999' 